CZ-6A DEB, 60652

Orbit data source: Space-Track

CZ-6A DEB, 60652 is space debris in LEO originally from a launch on Tue, 06 Aug 2024 UTC launched from the Taiyaun Space Center, China (TSC). Debris objects in space refer to the collection of defunct objects orbiting the Earth. Examples of debris include non-operational satellites, rocket bodies, and fragments generated from explosions, collisions, or faulty payload assembly.

Loading next visibility...
Identifier
60652, 2024-140BD
Orbit
LEO
Country
Flag of CNCN / PRC
Related business
Manufacturer
SAST
Mission
Spacecraft
Bus & Motor
Unknown
Mass
Unknown
Launch date (UTC)
2024-08-06 (1 year ago)
Launch vehicle
Unknown
Launch site
Taiyaun Space Center, China (TSC)
Object type
Payload
Rocket body
Debris
Shape & HBR
Unknown shape, 1.2 m
Radar Cross Section
Large (>1 m²)

Expand to show TLE details & history
Last TLE update: 1 day ago

TLE from 1 day ago
0 CZ-6A DEB
1 60652U 24140BD  25312.71267596  .00006242  00000-0  17167-2 0  9994
2 60652  88.9247 293.4497 0052725 308.6127  51.0362 14.46059458 65964
Epoch: 2025-11-08T17:06Z
TLE epoch observation values (Epoch: 2025-11-08T17:06:15.202Z)
Latitude
-0.00008°
Longitude
-11.25199°
Altitude
718.158 km
Speed
7.509 km/s
True Right ascension
19h 33m 47s
True Declination
0° 00' 00"
Sunlit
Object was in daylight at epoch
Visualization orbit readout
Latitude
Unknown
Longitude
Unknown
Altitude
Unknown
Speed
Unknown
Apparent Right ascension
Unknown
Apparent Declination
Unknown
Sunlit
N/A
Visualization observer readout
Local Sidereal Time
19:41:49
Azimuth
Unknown
Elevation
Unknown
Doppler factor
Unknown
Orbital elements
Apogee altitude
772.969 km
Perigee altitude
697.956 km
Semi-major axis
7,113.599 km
Eccentricity
0.00527
Inclination
88.9247°
RAAN
293.4497°
Arg. of periapsis
308.6127°
True anomaly
51.50793°
Mean anomaly
51.0362°
Eccentric anomaly
51.27187°
Mean motion
3.6175 °/min
Orbital period
99.52 mins
BSTAR
0.0017167
Loading maneuver chart data...
Computing Atmospheric mass density...

Documentation

Showing up to 5 results
|